Regional Weather Roundup
Issued by NWS

Home | Current Version | Previous Version | Graphics & Text | Print | Product List | Glossary On
Versions: 1 2 3 4 5 6 7 8 9 10 11 12 13 14 15 16 17 18 19 20 21 22 23 24 25 26 27 28 29 30 31 32 33 34 35 36 37 38 39 40 41 42 43 44 45 46 47 48 49 50
375
ASUS45 KCYS 230510
RWRWY

WYOMING REGIONAL WEATHER ROUNDUP
NATIONAL WEATHER SERVICE CHEYENNE WY
1000 PM MST THU FEB 22 2018

NOTE:  "FAIR" INDICATES FEW OR NO CLOUDS BELOW 12,000 FEET
WITH NO SIGNIFICANT WEATHER AND/OR OBSTRUCTIONS TO VISIBILITY.

WYZ001-230600-
YELLOWSTONE NATIONAL PARK

CITY           SKY/WX    TMP DP  RH WIND       PRES   REMARKS
LK YELLOWSTONE   N/A     -7 -11  83 CALM      29.89R
W YELLOWSTONE  NOT AVBL

$$
WYZ002>013-054>058-071-098>099-230600-
NORTHERN WYOMING

CITY           SKY/WX    TMP DP  RH WIND       PRES   REMARKS
JACKSON        CLOUDY    11   6  81 CALM      29.93R
CODY           FAIR       2  -3  80 CALM      30.05R
GREYBULL       FAIR      -4  -7  87 CALM      30.11R
WORLAND        FAIR      -3  -7  82 S8        30.08S WCI -18
SHERIDAN       FAIR       4  -4  69 CALM      30.11S
BUFFALO        FAIR       8  -6  52 NW5       30.04S WCI   0
GILLETTE       FAIR       5  -2  72 CALM      30.06F
HULETT         FAIR       9   0  66 MISG      30.07S
NEWCASTLE      FAIR       5   0  78 CALM      30.04S

$$
WYZ014>020-022>026-101>103-230600-
CENTRAL WYOMING

CITY           SKY/WX    TMP DP  RH WIND       PRES   REMARKS
BIG PINEY      LGT SNOW   8   4  83 SE3       29.94R FOG
PINEDALE       CLOUDY     7   5  92 CALM      29.94R
DUBOIS           N/A    N/A N/A N/A MISG        N/A
LANDER         FAIR       5   0  79 CALM      29.99R
RIVERTON       FAIR       6  -4  63 CALM      30.00R
CASPER         FAIR      -4  -6  91 W6        30.03R WCI -16
DOUGLAS        FAIR      -2  -7  79 CALM      30.04S

$$
WYZ021-027>030-104>119-230600-
SOUTHERN WYOMING

CITY           SKY/WX    TMP DP  RH WIND       PRES   REMARKS
EVANSTON       CLOUDY     9   4  80 E9        29.88S WCI  -4
ROCK SPRINGS   FAIR       7   1  76 W5        29.93S WCI  -2
DIXON          CLOUDY    20  15  81 CALM      29.99R
RAWLINS        CLOUDY    14  11  87 CALM      29.95S
SARATOGA       CLOUDY    19  18  93 SE7       29.95S WCI  10
LARAMIE        CLOUDY     9   8  96 CALM      29.93R
CHEYENNE       FAIR      14  12  92 W6        29.98S WCI   5
TORRINGTON     FAIR      17  12  80 NW7       30.05R WCI   8
PINE BLUFFS    CLOUDY    16  12  86 W3        30.03S

$$




USA.gov is the U.S. government's official web portal to all federal, state and local government web resources and services.